Strava‎ > ‎

August

RESULTS:

WOMEN:
Rank Name Date Speed HR Time
1 Lara Taylor Aug 12, 2017 15.3km/h 157bpm 05:42
2 Lucy Davies Aug 19, 2017 12.7km/h 151bpm 06:52

MEN:
Rank Name Date Speed HR Time
1 Jon Hughes Aug 3, 2017 23.1km/h 168bpm 03:47
2 Karl Chandler Aug 17, 2017 20.5km/h 135bpm 04:16
3 Ben Brown Aug 25, 2017 20.3km/h - 04:18
4 David Lancaster Aug 23, 2017 19.7km/h 184bpm 04:26
5 Tim Rogers ᵛᶜᵍʰ Aug 23, 2017 19.6km/h 169bpm 04:28
6 Chris Parker Aug 23, 2017 19.1km/h - 04:35
7 Mark Pritchard | VCGH Aug 20, 2017 18.7km/h 168bpm 04:40
8 Mark Herbert | VCGH Aug 7, 2017 18.5km/h - 04:44
9 Alastair B Aug 28, 2017 18.3km/h 164bpm 04:47
10 Ross Ovens Aug 9, 2017 18.2km/h 170bpm 04:48
11 James Andrews Aug 20, 2017 17.7km/h 166bpm 04:57
12 Tim Powell Aug 23, 2017 17.2km/h 166bpm 05:05
13 Neil Gardiner Aug 3, 2017 17.1km/h 176bpm 05:06
14 Marco Beestro Aug 19, 2017 16.5km/h 156bpm 05:18
15 Richard Fitzgerald Aug 19, 2017 16.4km/h - 05:20
16 Andrew Berry Aug 26, 2017 15.7km/h 164bpm 05:34
17 David Lomax Aug 19, 2017 15.5km/h 126bpm 05:39
18 Paul Hatcher Aug 31, 2017 15.4km/h 179bpm 05:40
19 Alastair Dodwell Aug 13, 2017 15.3km/h 167bpm 05:42
20 Kristian Sheglova Aug 20, 2017 15.3km/h 166bpm 05:44
21 Steve Street Aug 4, 2017 15.1km/h 168bpm 05:48
21 Jonathan Dobson Aug 28, 2017 15.1km/h 165bpm 05:48
23 Ike on Bikes Aug 24, 2017 14.9km/h 166bpm 05:52
24 steven green Aug 16, 2017 14.9km/h - 05:53
24 Matt Kevern Aug 24, 2017 14.9km/h 174bpm 05:53
26 Paul Davies Aug 20, 2017 14.7km/h - 05:57
27 Steven Byers Aug 29, 2017 14.4km/h - 06:04
28 Paul Kirby Aug 20, 2017 14.1km/h 158bpm 06:12
29 Hugh Cox Aug 20, 2017 13.6km/h - 06:25
30 Peter Davies Aug 19, 2017 12.9km/h 140bpm 06:47
31 Nick Strugnell Aug 20, 2017 12.6km/h 157bpm 06:56
32 Pete Ross Aug 27, 2017 12.4km/h 153bpm 07:04
33 Lawrie Vince Aug 16, 2017 12.0km/h - 07:17
34 Andrew Dodds Aug 10, 2017 11.7km/h - 07:27

This month is a climb segment, after the joy of the long painful July TT you now have the joy of a long climb :-)  Its all fun here!!

We head off to Combe Lane and a lovely tree lined route that gets steeper the higher you go.  Like I said, all fun.  Combe Lane